Regional Weather Roundup
Issued by NWS

Home | Current Version | Previous Version | Graphics & Text | Print | Product List | Glossary Off
Versions: 1 2 3 4 5 6 7 8 9 10 11 12 13 14 15 16 17 18 19 20 21 22 23 24 25 26 27 28 29 30 31 32 33 34 35 36 37 38 39 40 41 42 43 44 45 46 47 48 49 50

086
ASUS43 KMPX 232110
RWRMN
WEATHER ROUNDUP FOR MINNESOTA
NATIONAL WEATHER SERVICE TWIN CITIES/CHANHASSEN MN
400 PM CDT MON OCT 23 2017


NOTE: "FAIR" INDICATES FEW OR NO CLOUDS BELOW 12,000 FEET WITH NO
SIGNIFICANT WEATHER AND/OR OBSTRUCTIONS TO VISIBILITY. N/A MEANS
CURRENT SKY AND/OR WEATHER CONDITIONS ARE NOT AVAILABLE.

MNZ060>063-068>070-232200-
   Twin Cities Metro

CITY           SKY/WX    TMP DP  RH WIND       PRES   REMARKS
TWIN CITIES    CLOUDY    52  41  66 NW24G32   29.80R
ST PAUL        CLOUDY    53  40  61 NW20G29   29.80R
CRYSTAL        CLOUDY    51  38  60 NW21G32   29.79R
BLAINE         CLOUDY    54  41  62 NW18G30   29.78R
LAKEVILLE      CLOUDY    50  39  66 W15G24    29.80R
EDEN PRAIRIE   CLOUDY    51  41  68 NW20G32   29.80R
SOUTH ST PAUL  CLOUDY    54  37  53 NW13G26   29.78R
LAKE ELMO      CLOUDY    54  39  58 W15G22    29.78R
$$
MNZ001>005-007-008-013>017-022>024-027-028-232200-
   Northwest Minnesota

CITY           SKY/WX    TMP DP  RH WIND       PRES   REMARKS
BEMIDJI        SUNNY     47  29  48 NW21G28   29.90R
HALLOCK        MOSUNNY   46  28  49 N26G33    29.98R
ROSEAU         MOSUNNY   46  32  57 NW16G24   29.93R
WARROAD        PTSUNNY   46  30  53 N14G23    29.93R
THIEF RVR FALL SUNNY     47  29  49 NW26G36   29.95R
CROOKSTON      SUNNY     52  34  50 N22G28    29.96R
FOSSTON        SUNNY     48  32  53 NW20G26   29.94R
DETROIT LAKES  SUNNY     50  32  50 N18G28    29.94R
MOORHEAD       MOSUNNY   55  28  35 NW21      29.95R
PARK RAPIDS    CLOUDY    50  27  40 NW24G36   29.89R
MAHNOMEN       FAIR      49  33  54 N17G25    29.94R
$$
MNZ006-009>011-018-025>026-232200-
   North Central Minnesota

CITY           SKY/WX    TMP DP  RH WIND       PRES   REMARKS
BAUDETTE       CLOUDY    45  33  63 NW23G35   29.89R
FLAG ISLAND    LGT RAIN  45  34  65 NW22G29   29.90R
INTL FALLS     CLOUDY    44  39  82 NW15G23   29.82R
WASKISH        CLOUDY    46  36  66 NW13G23   29.88R
BIG FORK       RAIN      43  39  87 NW6       29.83R
LONGVILLE      CLOUDY    45  36  70 NW8G17    29.85R
GRAND RAPIDS   LGT RAIN  43  39  86 NW21      29.83R
CRANE LAKE     CLOUDY    45  43  93 NW12G20   29.77S
ORR            CLOUDY    45  39  81 NW12G21   29.75R
COOK           CLOUDY    46  43  87 NW8G18    29.77R
WALKER         CLOUDY    47  26  43 NW22G32   29.86F
$$
MNZ012-019>021-037-232200-
   Northeast Minnesota

CITY           SKY/WX    TMP DP  RH WIND       PRES   REMARKS
DULUTH         MOSUNNY   51  41  68 NW22G32   29.72R
ELY            CLOUDY    50  43  76 NW8       29.72R
HIBBING        CLOUDY    45  42  89 NW15G23   29.76R FOG
EVELETH        PTSUNNY   50  39  67 W13G20    29.75S
DULUTH HARBOR  SUNNY     57  45  62 W20G25    29.72R
TWO HARBORS    SUNNY     61  46  59 NW14G21   29.67R
SILVER BAY     MOSUNNY   61  43  51 W10G20    29.65R
GRAND MARAIS     N/A     53  44  71 W6        29.66F
G MARAIS ARPRT PTSUNNY   54  39  58 CALM      29.68R
$$
MNZ029>031-032-039>041-046>048-054>057-064-232200-
   West Central Minnesota

CITY           SKY/WX    TMP DP  RH WIND       PRES   REMARKS
FERGUS FALLS   MOSUNNY   54  30  40 N18G33    29.94R
WHEATON        SUNNY     55  27  33 NW20G30   29.97R
MORRIS         MOSUNNY   55  28  35 N24G41    29.93S
ALEXANDRIA     CLOUDY    51  31  46 NW18G29   29.93R
ELBOW LAKE     FAIR      53  31  44 W23G33    29.94R
WADENA         CLOUDY    48  28  46 NW21G33   29.90R
GLENWOOD       CLOUDY    50  34  53 NW18G33   29.92S
APPLETON       CLOUDY    57  25  28 N23G39    29.94S
BENSON         CLOUDY    54  34  47 N16G24    29.95S
ORTONVILLE     SUNNY     55  27  33 N18G35    29.95S
MADISON        CLOUDY    57  28  33 NW22G35   29.96S
WILLMAR        FAIR      52  34  50 NW28G35   29.93S
$$
MNZ033>034-036-042>043-049>051-058-059-232200-
   Central Minnesota

CITY           SKY/WX    TMP DP  RH WIND       PRES   REMARKS
ST CLOUD       CLOUDY    49  36  61 NW20G32   29.84R
SAUK CENTRE    CLOUDY    49  29  46 NW21G30   29.89F
PAYNESVILLE    CLOUDY    49  33  53 NW15G22   29.89S
AITKIN         CLOUDY    45  37  76 NW14G30   29.81R
PINE RIVER     CLOUDY    45  30  57 NW13G22   29.90R
BRAINERD       CLOUDY    47  32  56 NW21G37   29.86R
STAPLES        CLOUDY    46  25  42 NW13G20   29.88F
LONG PRAIRIE   CLOUDY    46  28  49 W14G21    29.89F
LITTLE FALLS   DRIZZLE   45  30  57 NW9       29.87R
LITCHFIELD     CLOUDY    52  34  50 NW24G32   29.87S
BUFFALO        CLOUDY    49  38  66 NW18G29   29.84S
MAPLE LAKE     CLOUDY    50  38  63 NW15G26   29.85R
HUTCHINSON     CLOUDY    51  36  57 NW20G30   29.87S
$$
MNZ037-044-045-052-053-232200-
   East Central Minnesota

CITY           SKY/WX    TMP DP  RH WIND       PRES   REMARKS
PRINCETON      CLOUDY    50  41  71 NW21      29.81R
MORA           CLOUDY    48  39  71 NW17G25   29.80R
CAMBRIDGE      CLOUDY    52  39  62 W14G23    29.80R
RUSH CITY      CLOUDY    51  40  66 NW14G21   29.77R
MOOSE LAKE     CLOUDY    50  41  71 NW14G21   29.75R
HINCKLEY       CLOUDY    50  41  71 NW13G18   29.77R
CLOQUET        CLOUDY    50  39  66 NW13G23   29.75R
MCGREGOR       CLOUDY    46  41  81 NW16G23   29.80R
$$
MNZ071>073-080-081-089-090-097-098-232200-
   Southwest Minnesota

CITY           SKY/WX    TMP DP  RH WIND       PRES   REMARKS
MONTEVIDEO     CLOUDY    54  30  40 N24       29.95R
GRANITE FALLS  CLOUDY    54  32  42 NW17G32   29.97R
CANBY          PTSUNNY   57  27  31 NW24G37   29.98R
MARSHALL       CLOUDY    53  29  39 N23G36    29.96R
REDWOOD FALLS  CLOUDY    51  31  46 NW23G35   29.92S
OLIVIA         CLOUDY    50  32  50 NW20G31   29.91S
PIPESTONE      PTSUNNY   52  28  40 N21G29    29.99R
WORTHINGTON    CLOUDY    49  34  56 NW23G35   29.98R
JACKSON        CLOUDY    46  36  66 NW31      29.94R
TRACY          CLOUDY    52  35  51 NW22G32   29.96S
SLAYTON        CLOUDY    51  31  47 NW23G33   29.98R
$$
MNZ065>067-074>077-082>085-091>093-232200-
   South Central Minnesota

CITY           SKY/WX    TMP DP  RH WIND       PRES   REMARKS
NEW ULM          N/A     48  36  61 NW28G38   29.89R
ST JAMES       CLOUDY    48  37  66 NW22G33   29.91R
FAIRMONT       CLOUDY    48  40  73 NW26G33   29.90R
GLENCOE        CLOUDY    51  41  69 NW23G31   29.84S
FARIBAULT      CLOUDY    50  41  71 W18G28    29.82R
OWATONNA       CLOUDY    50  39  66 W21G32    29.83R
WASECA         CLOUDY    50  39  66 NW17G28   29.85S
$$
MNZ078>079-086>088-094>096-232200-
   Southeast Minnesota

CITY           SKY/WX    TMP DP  RH WIND       PRES   REMARKS
ROCHESTER      PTSUNNY   53  40  61 NW24G35   29.77R
RED WING       CLOUDY    57  34  41 NW16G26   29.74R
STANTON        PTSUNNY   53  40  61 NW23G30   29.79R
DODGE CENTER   PTSUNNY   52  37  58 W25G33    29.78S
WINONA         PTSUNNY   59  39  47 NW16G23   29.72F
AUSTIN         PTSUNNY   54  37  54 NW26G35   29.80R
PRESTON        MOSUNNY   55  37  49 NW24G32   29.76R
$$
ABBREVIATIONS USED IN REMARKS
   TC - TEMPERATURES IN CELSIUS
  WCI - WIND CHILL INDEX
   HX - HEAT INDEX
  VSB - VISIBILITY
$$




USA.gov is the U.S. government's official web portal to all federal, state and local government web resources and services.